Regional Weather Roundup
Issued by NWS

Home | Current Version | Previous Version | Text Only | Print | Product List | Glossary On
Versions: 1 2 3 4 5 6 7 8 9 10 11 12 13 14 15 16 17 18 19 20 21 22 23 24 25 26 27 28 29 30 31 32 33 34 35 36 37 38 39 40 41 42 43 44 45 46 47 48 49 50
000
ASCA42 TJSJ 282011
RWRPR
PUERTO RICO/U.S. VIRGIN ISLANDS HOURLY WEATHER ROUNDUP
NATIONAL WEATHER SERVICE SAN JUAN PR
400 PM AST SUN DEC 28 2014

PRZ001-004-282100-
PUERTO RICO

CITY           SKY/WX    TMP DP  RH WIND       PRES   REMARKS
SAN JUAN LMM   MOSUNNY   81  70  69 NE14      30.00S
PONCE          PTSUNNY   82  72  69 CALM      29.94S
CEIBA          MOSUNNY   81  68  65 NE13      30.02S
$$

PRZ006-007-282100-
U.S. VIRGIN ISLANDS

CITY           SKY/WX    TMP DP  RH WIND       PRES   REMARKS
$$

HOURLY WEATHER ROUNDUP FOR THE NEWS MEDIA

CITY           SKY/WX    TMP DP  RH WIND       PRES   REMARKS
MIAMI          MOSUNNY   81  68  64 SE8       30.10F
ORLANDO        PTSUNNY   80  64  58 S3        30.08F
NEW YORK       CLOUDY    53  42  66 W7        29.90S
NEWARK         CLOUDY    54  44  69 W6        29.90R
CHICAGO        MOSUNNY   34  13  41 W10       30.14R WCI  26
HARTFORD       CLOUDY    50  44  80 W6        29.82R
BOSTON         CLOUDY    52  39  61 NW20G28   29.81R
DALLAS         MOSUNNY   46  23  40 N7        30.18F
PHILADELPHIA   CLOUDY    56  40  55 SW6       29.94R


USA.gov is the U.S. government's official web portal to all federal, state and local government web resources and services.